WD6FGE Weather Reports


Display with metric or nautical units.
time (UTC)temp
F
wind
direction
speed
MPH
gust
MPH
rain 1hr
in
rain 24hr
in
rain mn
in
humidity
%
barometer
mb
20200927205604 79 124 5.0 14.0 0.00 0.00 0.00 20 1018.1
20200927204559 80 63 5.0 14.0 0.00 0.00 0.00 20 1018.3
20200927203610 79 16 4.0 16.0 0.00 0.00 0.00 21 1018.5
20200927202558 78 35 5.0 16.0 0.00 0.00 0.00 21 1018.7
20200927201524 77 63 4.0 14.0 0.00 0.00 0.00 23 1018.8
20200927200524 77 12 5.0 14.0 0.00 0.00 0.00 24 1019.1
20200927195548 77 5 6.0 14.0 0.00 0.00 0.00 24 1019.2
20200927194549 76 5 5.0 14.0 0.00 0.00 0.00 25 1019.3
20200927193529 75 10 5.0 15.0 0.00 0.00 0.00 28 1019.5
20200927192541 73 34 5.0 16.0 0.00 0.00 0.00 31 1019.6
20200927191533 73 35 4.0 16.0 0.00 0.00 0.00 30 1019.8
20200927190509 73 107 4.0 15.0 0.00 0.00 0.00 30 1020.0
20200927185521 72 335 6.0 15.0 0.00 0.00 0.00 31 1020.2
20200927184538 71 26 4.0 16.0 0.00 0.00 0.00 34 1020.3
20200927183514 70 59 6.0 16.0 0.00 0.00 0.00 36 1020.5
20200927182511 68 67 5.0 15.0 0.00 0.00 0.00 38 1020.6
20200927181518 67 65 6.0 15.0 0.00 0.00 0.00 40 1020.8
20200927180451 67 149 4.0 14.0 0.00 0.00 0.00 41 1021.0
20200927175422 66 347 4.0 13.0 0.00 0.00 0.00 43 1021.1
20200927174359 66 42 5.0 13.0 0.00 0.00 0.00 43 1021.2
20200927173343 65 331 5.0 13.0 0.00 0.00 0.00 45 1021.3
20200927172356 64 5 5.0 14.0 0.00 0.00 0.00 46 1021.4
20200927171350 63 119 5.0 14.0 0.00 0.00 0.00 47 1021.5
20200927170413 63 13 2.0 9.0 0.00 0.00 0.00 48 1021.5
20200927165351 61 61 6.0 13.0 0.00 0.00 0.00 51 1021.5
20200927164346 61 28 4.0 14.0 0.00 0.00 0.00 51 1021.5
20200927163349 59 76 5.0 14.0 0.00 0.00 0.00 54 1021.6
20200927162358 59 86 3.0 14.0 0.00 0.00 0.00 54 1021.7
20200927161338 58 59 4.0 11.0 0.00 0.00 0.00 56 1021.6
20200927160404 57 49 4.0 10.0 0.00 0.00 0.00 57 1021.5
20200927155409 56 147 2.0 7.0 0.00 0.00 0.00 61 1021.5
20200927154403 55 9 2.0 7.0 0.00 0.00 0.00 62 1021.5
20200927153333 54 78 2.0 7.0 0.00 0.00 0.00 64 1021.5
20200927152332 53 44 3.0 7.0 0.00 0.00 0.00 66 1021.5
20200927151326 52 113 1.0 7.0 0.00 0.00 0.00 69 1021.5
20200927150313 50 15 1.0 7.0 0.00 0.00 0.00 73 1021.5
20200927145249 48 59 0.0 4.0 0.00 0.00 0.00 75 1021.5
20200927144226 48 105 0.0 4.0 0.00 0.00 0.00 74 1021.4
20200927143244 48 319 1.0 4.0 0.00 0.00 0.00 75 1021.2
20200927142211 48 14 1.0 4.0 0.00 0.00 0.00 77 1021.1
20200927141217 47 36 1.0 4.0 0.00 0.00 0.00 77 1021.0
20200927140226 47 39 1.0 4.0 0.00 0.00 0.00 78 1020.9
20200927135206 46 78 0.0 2.0 0.00 0.00 0.00 77 1020.9
20200927134139 46 117 0.0 2.0 0.00 0.00 0.00 75 1020.8
20200927133200 48 61 0.0 0.0 0.00 0.00 0.00 74 1020.9
20200927132153 48 26 0.0 0.0 0.00 0.00 0.00 72 1020.8
20200927131202 49 25 0.0 4.0 0.00 0.00 0.00 72 1020.9
20200927130219 49 25 0.0 4.0 0.00 0.00 0.00 71 1020.8
20200927125220 50 41 0.0 3.0 0.00 0.00 0.00 70 1020.6
20200927124146 50 355 0.0 2.0 0.00 0.00 0.00 72 1020.7
20200927123121 50 27 0.0 4.0 0.00 0.00 0.00 72 1020.4
20200927122101 50 15 0.0 4.0 0.00 0.00 0.00 72 1020.4
20200927121127 50 35 1.0 3.0 0.00 0.00 0.00 71 1020.4
20200927120051 50 50 0.0 1.0 0.00 0.00 0.00 71 1020.2
20200927115037 51 32 0.0 3.0 0.00 0.00 0.00 70 1020.1
20200927114032 51 355 1.0 4.0 0.00 0.00 0.00 69 1019.9
20200927113036 51 28 1.0 4.0 0.00 0.00 0.00 69 1019.8
20200927112034 51 11 1.0 4.0 0.00 0.00 0.00 68 1019.9
20200927111057 51 355 1.0 3.0 0.00 0.00 0.00 69 1019.9
20200927110044 51 344 1.0 5.0 0.00 0.00 0.00 69 1019.8
20200927105106 51 5 1.0 6.0 0.00 0.00 0.00 69 1019.8
20200927104048 51 344 0.0 6.0 0.00 0.00 0.00 70 1019.8
20200927103039 52 44 1.0 6.0 0.00 0.00 0.00 69 1019.7
20200927102050 52 73 0.0 1.0 0.00 0.00 0.00 67 1019.7
20200927101036 53 106 1.0 4.0 0.00 0.00 0.00 66 1019.7
20200927100027 54 84 1.0 7.0 0.00 0.00 0.00 65 1019.6
20200927095046 54 26 2.0 10.0 0.00 0.00 0.00 65 1019.6
20200927094019 54 0 2.0 10.0 0.00 0.00 0.00 64 1019.7
20200927092951 54 13 2.0 8.0 0.00 0.00 0.00 65 1019.7
20200927091948 54 65 2.0 7.0 0.00 0.00 0.00 64 1019.9
20200927091010 54 30 1.0 4.0 0.00 0.00 0.00 63 1019.8
20200927090019 55 335 1.0 6.0 0.00 0.00 0.00 63 1019.7
20200927085000 55 14 1.0 11.0 0.00 0.00 0.00 62 1019.8
20200927084022 56 83 2.0 11.0 0.00 0.00 0.00 61 1019.5
20200927082947 56 5 2.0 10.0 0.00 0.00 0.00 60 1019.4
20200927081948 57 333 2.0 10.0 0.00 0.00 0.00 60 1019.3
20200927081006 57 340 2.0 8.0 0.00 0.00 0.00 60 1019.2
20200927075945 58 54 1.0 11.0 0.00 0.00 0.00 59 1019.2
20200927074949 58 38 1.0 11.0 0.00 0.00 0.00 58 1019.0
20200927073949 58 49 3.0 14.0 0.00 0.00 0.00 57 1018.8
20200927073029 59 350 4.0 14.0 0.00 0.00 0.00 57 1018.7
20200927071958 58 22 3.0 10.0 0.00 0.00 0.00 57 1018.7
20200927070928 58 49 2.0 10.0 0.00 0.00 0.00 57 1018.7
20200927065929 58 40 2.0 7.0 0.00 0.00 0.00 57 1018.7
20200927064936 58 53 1.0 6.0 0.00 0.00 0.00 58 1018.5
20200927063922 58 12 2.0 6.0 0.00 0.00 0.00 57 1018.4
20200927062910 59 43 0.0 4.0 0.00 0.00 0.00 57 1018.3
20200927061845 59 51 1.0 6.0 0.00 0.00 0.00 56 1018.2
20200927060812 59 92 1.0 8.0 0.00 0.00 0.00 57 1018.1
20200927055833 59 41 1.0 8.0 0.00 0.00 0.00 57 1018.0
20200927054812 59 46 0.0 8.0 0.00 0.00 0.00 56 1017.8
20200927053807 59 348 1.0 8.0 0.00 0.00 0.00 55 1017.9
20200927052827 60 59 1.0 4.0 0.00 0.00 0.00 55 1017.7
20200927051753 60 34 0.0 2.0 0.00 0.00 0.00 53 1017.8
20200927050752 61 34 0.0 2.0 0.00 0.00 0.00 52 1017.7
20200927045810 62 64 1.0 6.0 0.00 0.00 0.00 51 1017.6
20200927044751 63 61 2.0 6.0 0.00 0.00 0.00 50 1017.5
20200927043818 63 87 2.0 10.0 0.00 0.00 0.00 50 1017.4
20200927042806 63 76 3.0 11.0 0.00 0.00 0.00 49 1017.4
20200927041811 63 49 2.0 11.0 0.00 0.00 0.00 50 1017.3
20200927040743 64 74 1.0 6.0 0.00 0.00 0.00 49 1017.1
20200927035741 65 115 2.0 9.0 0.00 0.00 0.00 48 1016.8
20200927034713 65 344 2.0 9.0 0.00 0.00 0.00 47 1016.5
20200927033704 66 12 2.0 6.0 0.00 0.00 0.00 47 1016.5
20200927032646 66 5 3.0 9.0 0.00 0.00 0.00 46 1016.3
20200927031649 67 28 3.0 9.0 0.00 0.00 0.00 45 1016.1
20200927030616 67 32 4.0 16.0 0.00 0.00 0.00 44 1016.0
20200927025610 68 19 3.0 16.0 0.00 0.00 0.00 44 1015.8
20200927024619 68 344 3.0 10.0 0.00 0.00 0.00 43 1015.8
20200927023552 69 51 2.0 9.0 0.00 0.00 0.00 41 1015.7
20200927022533 69 11 1.0 9.0 0.00 0.00 0.00 40 1015.5
20200927021523 70 15 3.0 7.0 0.00 0.00 0.00 39 1015.4
20200927020517 71 355 2.0 6.0 0.00 0.00 0.00 38 1015.1
20200927015535 72 44 2.0 7.0 0.00 0.00 0.00 38 1015.0
20200927014526 73 329 2.0 9.0 0.00 0.00 0.00 37 1014.9
20200927013514 74 5 3.0 9.0 0.00 0.00 0.00 36 1014.7
20200927012512 74 5 2.0 8.0 0.00 0.00 0.00 36 1014.6
20200927011451 75 5 0.0 4.0 0.00 0.00 0.00 36 1014.7
20200927010416 76 5 1.0 6.0 0.00 0.00 0.00 36 1014.5
20200927005411 77 337 1.0 8.0 0.00 0.00 0.00 36 1014.6
20200927004406 77 5 1.0 8.0 0.00 0.00 0.00 34 1014.3
20200927003401 77 315 2.0 8.0 0.00 0.00 0.00 35 1014.1
20200927002344 77 41 1.0 8.0 0.00 0.00 0.00 33 1014.1
20200927001325 77 68 1.0 3.0 0.00 0.00 0.00 33 1014.2
20200927000312 78 136 1.0 3.0 0.00 0.00 0.00 33 1014.2
20200926235330 79 63 2.0 5.0 0.00 0.00 0.00 32 1014.2
20200926234320 79 100 1.0 11.0 0.00 0.00 0.00 32 1014.1
20200926233320 79 40 3.0 11.0 0.00 0.00 0.00 32 1014.0
20200926232322 78 160 1.0 7.0 0.00 0.00 0.00 32 1014.2
20200926231328 78 344 2.0 7.0 0.00 0.00 0.00 32 1014.4
20200926230338 78 105 1.0 5.0 0.00 0.00 0.00 32 1014.3
20200926225344 78 88 2.0 8.0 0.00 0.00 0.00 32 1014.4
20200926224407 78 47 2.0 8.0 0.00 0.00 0.00 33 1014.5
20200926223428 78 23 1.0 7.0 0.00 0.00 0.00 32 1014.6
20200926222451 78 178 2.0 10.0 0.00 0.00 0.00 33 1014.6
20200926221518 78 346 2.0 10.0 0.00 0.00 0.00 32 1014.6
20200926220435 78 248 1.0 9.0 0.00 0.00 0.00 33 1014.7
20200926215407 78 329 3.0 9.0 0.00 0.00 0.00 33 1014.7
20200926214345 77 44 2.0 8.0 0.00 0.00 0.00 33 1014.6
20200926213404 77 107 1.0 6.0 0.00 0.00 0.00 34 1014.9
20200926212353 76 32 2.0 6.0 0.00 0.00 0.00 34 1015.0
20200926211351 76 77 3.0 9.0 0.00 0.00 0.00 35 1015.1
20200926210416 76 150 2.0 9.0 0.00 0.00 0.00 35 1015.2